Location: Bathurst
(33.4193°S, 149.5775°E)
Time: 22:20:31
(UTC+10:00)

Explorer 7 - Visible Passes

Search period start: 13 June 2021 00:00
Search period end: 23 June 2021 00:00
Orbit: 484 x 677 km, 50.3° (Epoch: 12 June)

Date Brightness Start Highest point End Pass type
(mag) Time Alt. Az. Time Alt. Az. Time Alt. Az.
13 Jun 7.7 18:34:28 10° WSW 18:38:54 56° NW 18:43:30 10° NNE visible
14 Jun 8.8 18:39:06 10° WSW 18:43:10 33° NW 18:47:23 10° NNE visible
15 Jun 9.8 18:44:08 10° W 18:47:22 19° NW 18:50:41 10° N visible
16 Jun 10.4 18:50:31 10° WNW 18:51:31 11° NW 18:52:32 10° NW visible
19 Jun 10.2 17:21:28 10° W 17:24:12 16° NW 17:27:01 10° NNW visible
